| time (UTC) | temp C | wind direction | speed KPH | gust KPH | rain 1hr cm | rain 24hr cm | rain mn cm | humidity % | barometer mb |
| 20260506062505 | 25 | 104 | 37.0 | 0.0 | 0.00 | 0.00 | 0.00 | 84 | 1007.6 |
| 20260506062213 | 25 | 98 | 20.9 | 0.0 | 0.00 | 0.00 | 0.00 | 83 | 1007.6 |
| 20260506061505 | 25 | 129 | 20.9 | 0.0 | 0.00 | 0.00 | 0.00 | 83 | 1007.6 |
| 20260506061213 | 25 | 79 | 14.5 | 0.0 | 0.00 | 0.00 | 0.00 | 83 | 1007.9 |
| 20260506060712 | 25 | 44 | 14.5 | 0.0 | 0.00 | 0.00 | 0.00 | 83 | 1007.6 |
| 20260506051006 | 25 | 319 | 14.5 | 0.0 | 0.00 | 0.00 | 0.00 | 81 | 1007.9 |
| 20260506050505 | 25 | 65 | 14.5 | 0.0 | 0.00 | 0.00 | 0.00 | 81 | 1008.2 |
| 20260506045004 | 25 | 49 | 29.0 | 0.0 | 0.00 | 0.00 | 0.00 | 80 | 1008.2 |
| 20260506044712 | 25 | 175 | 14.5 | 0.0 | 0.00 | 0.00 | 0.00 | 80 | 1007.9 |
| 20260506044005 | 25 | 149 | 14.5 | 0.0 | 0.00 | 0.00 | 0.00 | 80 | 1007.9 |
| 20260506043505 | 25 | 141 | 14.5 | 0.0 | 0.00 | 0.00 | 0.00 | 80 | 1008.2 |
| 20260506043005 | 25 | 44 | 29.0 | 0.0 | 0.00 | 0.00 | 0.00 | 80 | 1008.2 |
| 20260506042505 | 25 | 88 | 20.9 | 0.0 | 0.00 | 0.00 | 0.00 | 80 | 1008.2 |
| 20260506042213 | 25 | 95 | 14.5 | 0.0 | 0.00 | 0.00 | 0.00 | 80 | 1008.2 |
| 20260506041505 | 25 | 10 | 20.9 | 0.0 | 0.00 | 0.00 | 0.00 | 80 | 1008.2 |
| 20260506041005 | 25 | 82 | 6.4 | 0.0 | 0.00 | 0.00 | 0.00 | 80 | 1008.2 |
| 20260506040505 | 25 | 50 | 6.4 | 0.0 | 0.00 | 0.00 | 0.00 | 80 | 1008.2 |
| 20260506040005 | 25 | 50 | 6.4 | 0.0 | 0.00 | 0.00 | 0.00 | 80 | 1008.2 |
| 20260506035505 | 25 | 105 | 20.9 | 0.0 | 0.00 | 0.00 | 0.00 | 80 | 1008.2 |
| 20260506035005 | 25 | 116 | 14.5 | 0.0 | 0.00 | 0.00 | 0.00 | 79 | 1007.9 |
| 20260506034505 | 25 | 62 | 14.5 | 0.0 | 0.00 | 0.00 | 0.00 | 79 | 1007.9 |
| 20260506034005 | 25 | 116 | 6.4 | 0.0 | 0.00 | 0.00 | 0.00 | 79 | 1007.9 |
| 20260506033506 | 25 | 86 | 29.0 | 0.0 | 0.00 | 0.00 | 0.00 | 79 | 1007.9 |
| 20260506033212 | 25 | 51 | 14.5 | 0.0 | 0.00 | 0.00 | 0.00 | 79 | 1007.6 |
| 20260506032505 | 25 | 58 | 14.5 | 0.0 | 0.00 | 0.00 | 0.00 | 79 | 1007.9 |
| 20260506032005 | 25 | 75 | 43.5 | 0.0 | 0.00 | 0.00 | 0.00 | 79 | 1007.9 |
| 20260506031505 | 25 | 33 | 20.9 | 0.0 | 0.00 | 0.00 | 0.00 | 79 | 1007.9 |
| 20260506031005 | 25 | 172 | 14.5 | 0.0 | 0.00 | 0.00 | 0.00 | 79 | 1007.9 |
| 20260506030505 | 25 | 58 | 29.0 | 0.0 | 0.00 | 0.00 | 0.00 | 79 | 1007.6 |
| 20260506030212 | 25 | 84 | 6.4 | 0.0 | 0.00 | 0.00 | 0.00 | 78 | 1007.6 |
| 20260506025505 | 25 | 136 | 14.5 | 0.0 | 0.00 | 0.00 | 0.00 | 78 | 1007.6 |
| 20260506025005 | 25 | 72 | 6.4 | 0.0 | 0.00 | 0.00 | 0.00 | 78 | 1007.6 |
| 20260506024505 | 25 | 65 | 14.5 | 0.0 | 0.00 | 0.00 | 0.00 | 78 | 1007.2 |
| 20260506024212 | 25 | 90 | 14.5 | 0.0 | 0.00 | 0.00 | 0.00 | 78 | 1007.2 |
| 20260506023504 | 25 | 77 | 14.5 | 0.0 | 0.00 | 0.00 | 0.00 | 78 | 1007.2 |
| 20260506023005 | 25 | 147 | 14.5 | 0.0 | 0.00 | 0.00 | 0.00 | 77 | 1007.2 |
| 20260506022505 | 25 | 92 | 6.4 | 0.0 | 0.00 | 0.00 | 0.00 | 77 | 1007.2 |
| 20260506022005 | 25 | 37 | 20.9 | 0.0 | 0.00 | 0.00 | 0.00 | 77 | 1007.2 |
| 20260506021505 | 25 | 55 | 43.5 | 0.0 | 0.00 | 0.00 | 0.00 | 77 | 1007.2 |
| 20260506021007 | 25 | 170 | 6.4 | 0.0 | 0.00 | 0.00 | 0.00 | 77 | 1007.2 |
| 20260505140505 | 25 | 144 | 14.5 | 0.0 | 0.00 | 0.00 | 0.00 | 80 | 1009.3 |
| 20260505125005 | 23 | 177 | 20.9 | 0.0 | 0.00 | 0.00 | 0.00 | 85 | 1009.3 |
| 20260505124505 | 23 | 165 | 14.5 | 0.0 | 0.00 | 0.00 | 0.00 | 86 | 1009.3 |
| 20260505124005 | 23 | 106 | 6.4 | 0.0 | 0.00 | 0.00 | 0.00 | 86 | 1009.3 |
| 20260505123712 | 23 | 144 | 20.9 | 0.0 | 0.00 | 0.00 | 0.00 | 86 | 1009.3 |
| 20260505123211 | 23 | 94 | 14.5 | 0.0 | 0.00 | 0.00 | 0.00 | 86 | 1009.3 |
| 20260505122505 | 23 | 123 | 14.5 | 0.0 | 0.00 | 0.00 | 0.00 | 86 | 1009.3 |
| 20260505122005 | 23 | 117 | 20.9 | 0.0 | 0.00 | 0.00 | 0.00 | 86 | 1009.3 |
| 20260505121505 | 23 | 99 | 20.9 | 0.0 | 0.00 | 0.00 | 0.00 | 86 | 1009.6 |
| 20260505121005 | 23 | 138 | 29.0 | 0.0 | 0.00 | 0.00 | 0.00 | 86 | 1009.3 |
| 20260505120505 | 23 | 96 | 29.0 | 0.0 | 0.00 | 0.00 | 0.00 | 86 | 1009.3 |
| 20260505120213 | 23 | 141 | 14.5 | 0.0 | 0.00 | 0.00 | 0.00 | 86 | 1008.9 |
| 20260505115504 | 23 | 164 | 14.5 | 0.0 | 0.00 | 0.00 | 0.00 | 86 | 1008.9 |
| 20260505115005 | 23 | 113 | 6.4 | 0.0 | 0.00 | 0.00 | 0.00 | 86 | 1009.3 |
| 20260505114505 | 23 | 170 | 14.5 | 0.0 | 0.00 | 0.00 | 0.00 | 86 | 1009.3 |
| 20260505114005 | 23 | 130 | 6.4 | 0.0 | 0.00 | 0.00 | 0.00 | 86 | 1009.3 |
| 20260505113505 | 23 | 166 | 14.5 | 0.0 | 0.00 | 0.00 | 0.00 | 86 | 1009.3 |
| 20260505113005 | 23 | 138 | 20.9 | 0.0 | 0.00 | 0.00 | 0.00 | 86 | 1008.9 |
| 20260505112712 | 23 | 71 | 14.5 | 0.0 | 0.00 | 0.00 | 0.00 | 86 | 1008.9 |
| 20260505112211 | 23 | 55 | 29.0 | 0.0 | 0.00 | 0.00 | 0.00 | 86 | 1008.9 |
| 20260505111505 | 23 | 143 | 6.4 | 0.0 | 0.00 | 0.00 | 0.00 | 86 | 1009.3 |
| 20260505111005 | 23 | 161 | 14.5 | 0.0 | 0.00 | 0.00 | 0.00 | 86 | 1009.3 |
| 20260505110505 | 23 | 182 | 14.5 | 0.0 | 0.00 | 0.00 | 0.00 | 85 | 1009.6 |
| 20260505102005 | 23 | 80 | 14.5 | 0.0 | 0.00 | 0.00 | 0.00 | 87 | 1009.3 |
| 20260505101505 | 23 | 104 | 0.0 | 0.0 | 0.00 | 0.00 | 0.00 | 87 | 1009.3 |
| 20260505101005 | 23 | 123 | 6.4 | 0.0 | 0.00 | 0.00 | 0.00 | 87 | 1009.3 |
| 20260505100505 | 23 | 20 | 14.5 | 0.0 | 0.00 | 0.00 | 0.00 | 87 | 1009.3 |
| 20260505100212 | 23 | 37 | 43.5 | 0.0 | 0.00 | 0.00 | 0.00 | 87 | 1009.3 |
| 20260505095505 | 23 | 171 | 14.5 | 0.0 | 0.00 | 0.00 | 0.00 | 87 | 1009.3 |
| 20260505095005 | 23 | 96 | 14.5 | 0.0 | 0.00 | 0.00 | 0.00 | 87 | 1009.3 |
| 20260505094505 | 23 | 117 | 14.5 | 0.0 | 0.00 | 0.00 | 0.00 | 87 | 1009.3 |
| 20260505094005 | 23 | 80 | 20.9 | 0.0 | 0.00 | 0.00 | 0.00 | 86 | 1009.3 |
| 20260505093505 | 23 | 177 | 20.9 | 0.0 | 0.00 | 0.00 | 0.00 | 86 | 1008.9 |
| 20260505093005 | 23 | 55 | 6.4 | 0.0 | 0.00 | 0.00 | 0.00 | 86 | 1008.9 |
| 20260505092505 | 23 | 84 | 29.0 | 0.0 | 0.00 | 0.00 | 0.00 | 86 | 1009.3 |
| 20260505092005 | 23 | 163 | 14.5 | 0.0 | 0.00 | 0.00 | 0.00 | 86 | 1009.6 |
| 20260505091505 | 23 | 169 | 20.9 | 0.0 | 0.00 | 0.00 | 0.00 | 86 | 1009.3 |
| 20260505091005 | 23 | 149 | 37.0 | 0.0 | 0.00 | 0.00 | 0.00 | 86 | 1009.3 |
| 20260505090505 | 23 | 155 | 14.5 | 0.0 | 0.00 | 0.00 | 0.00 | 86 | 1009.3 |
| 20260505090005 | 23 | 67 | 14.5 | 0.0 | 0.00 | 0.00 | 0.00 | 86 | 1009.6 |
| 20260505085505 | 23 | 158 | 14.5 | 0.0 | 0.00 | 0.00 | 0.00 | 86 | 1009.3 |
| 20260505085005 | 23 | 141 | 20.9 | 0.0 | 0.00 | 0.00 | 0.00 | 85 | 1009.3 |
| 20260505084505 | 23 | 73 | 6.4 | 0.0 | 0.00 | 0.00 | 0.00 | 85 | 1009.6 |
| 20260505084005 | 23 | 154 | 20.9 | 0.0 | 0.00 | 0.00 | 0.00 | 85 | 1009.6 |
| 20260505083505 | 23 | 91 | 20.9 | 0.0 | 0.00 | 0.00 | 0.00 | 85 | 1009.9 |
| 20260505083005 | 23 | 148 | 51.5 | 0.0 | 0.00 | 0.00 | 0.00 | 85 | 1009.9 |
| 20260505082505 | 23 | 109 | 14.5 | 0.0 | 0.00 | 0.00 | 0.00 | 85 | 1009.9 |
| 20260505082004 | 23 | 143 | 6.4 | 0.0 | 0.00 | 0.00 | 0.00 | 85 | 1009.9 |
| 20260505081505 | 23 | 160 | 20.9 | 0.0 | 0.00 | 0.00 | 0.00 | 85 | 1009.9 |
| 20260505081005 | 23 | 113 | 20.9 | 0.0 | 0.00 | 0.00 | 0.00 | 85 | 1009.9 |
| 20260505080505 | 23 | 166 | 14.5 | 0.0 | 0.00 | 0.00 | 0.00 | 85 | 1009.9 |
| 20260505080005 | 23 | 131 | 29.0 | 0.0 | 0.00 | 0.00 | 0.00 | 85 | 1010.3 |
| 20260505075505 | 23 | 165 | 20.9 | 0.0 | 0.00 | 0.00 | 0.00 | 86 | 1010.6 |
| 20260505075005 | 23 | 127 | 0.0 | 0.0 | 0.00 | 0.00 | 0.00 | 86 | 1010.3 |
| 20260505074505 | 23 | 138 | 6.4 | 0.0 | 0.00 | 0.00 | 0.00 | 86 | 1010.3 |
| 20260505074005 | 23 | 108 | 0.0 | 0.0 | 0.00 | 0.00 | 0.00 | 86 | 1010.3 |
| 20260505073505 | 23 | 138 | 6.4 | 0.0 | 0.00 | 0.00 | 0.00 | 86 | 1010.3 |
| 20260505073213 | 23 | 131 | 20.9 | 0.0 | 0.00 | 0.00 | 0.00 | 86 | 1010.3 |
| 20260505072712 | 23 | 100 | 14.5 | 0.0 | 0.00 | 0.00 | 0.00 | 86 | 1010.3 |
| 20260505072005 | 22 | 151 | 29.0 | 0.0 | 0.00 | 0.00 | 0.00 | 86 | 1009.9 |
| 20260505071505 | 22 | 111 | 0.0 | 0.0 | 0.00 | 0.00 | 0.00 | 86 | 1010.3 |
| 20260505071005 | 22 | 139 | 14.5 | 0.0 | 0.00 | 0.00 | 0.00 | 86 | 1010.3 |
| 20260505070505 | 22 | 118 | 14.5 | 0.0 | 0.00 | 0.00 | 0.00 | 86 | 1010.6 |